User: anonymous   Login
Location: Pl�tzky
(52.0521°N, 11.8020°E)
Time: 10:54:41
(UTC+00:00)
Language:

USA 229 - Orbit

View from above orbital plane
View from above orbital plane
View from above satellite
View from above satellite

Ground track
Ground track

The orbit data is extracted from the following two-line orbital elements,

1 37386U 11014A   20019.25989180 0.00000000  00000-0  00000-0 0    01
2 37386  63.4299 128.6564 0150000   0.5428 359.4572 13.40796195    09
Epoch (UTC): 19 January 2020 06:14:14
Eccentricity: 0.0150000
inclination: 63.4299°
perigee height: 994 km
apogee height: 1218 km
right ascension of ascending node: 128.6564°
argument of perigee: 0.5428°
revolutions per day: 13.40796195
mean anomaly at epoch: 359.4572°
orbit number at epoch: 0

The dashed part of the orbit path shows where the satellite is in the earth's shadow,  

DLR